Location: Banios
(43.0451°N, 0.2335°E)
Time: 08:33:58
(UTC+00:00)

A-11 Canister half - Pass Details

Date: 12 May 2021
Orbit: 1527 x 1681 km, 47.3° (Epoch: 22 June)

Event Time Altitude Azimuth Distance (km) Brightness Sun altitude
Rises 07:23:13 0° 196° (SSW) 4,688 11.4 28.2°
Reaches altitude 10° 07:26:45 10° 185° (S) 3,725 11.1 28.9°
Maximum altitude 07:34:25 29° 130° (SE) 2,586 11.4 30.3°
Drops below altitude 10° 07:42:16 10° 76° (ENE) 3,833 12.4 31.7°
Sets 07:45:56 0° 66° (ENE) 4,846 12.4 32.4°
